{"data":{"norad_id":54767,"intl_designator":"2022-175K","name":"STARLINK-5472","alt_names":[],"object_type":"PAYLOAD","status":"ACTIVE","operator":null,"country":"US","launch_date":"2022-12-17","launch_site_code":"AFETR","launch_vehicle":null,"mission":null,"orbit_class":"UNKNOWN","rcs_meters":null,"size_class":null,"mass_kg":null,"dimensions":null,"purposes":["comms"],"wikipedia_slug":null,"has_3d_model":false,"image_url":null,"decayed_at":null,"tle_current":{"epoch":"2026-09-20T22:11:37.046112Z","epoch_age_seconds":52639,"freshness":"FRESH","line1":"1 54767U 22175K   26263.92473433  .00089940  00000+0  54859-2 0  9992","line2":"2 54767  53.1606 246.9571 0001433  76.8871 283.2280 15.09577308209397","mean_motion":15.09577308,"eccentricity":0.0001433,"inclination_deg":53.1606,"raan_deg":246.9571,"arg_perigee_deg":76.8871,"mean_anomaly_deg":283.228,"bstar":0.0054859,"rev_number":20939,"period_min":95.390941051427,"perigee_km":536.49964125583,"apogee_km":538.48166014052,"semimajor_km":6915.6276506982,"source":"CELESTRAK","updated_at":"2026-09-21T09:00:33.121534Z"}}}